Weather History for Fort Campbell, KY

Change the Weather History Date:

Monday, September 10, 2012

  Actual Average Record
Temperature  
Mean Temperature 66 °F -  
Max Temperature 79 °F 82 °F 96 °F (2002)
Min Temperature 55 °F 60 °F 50 °F (1998)
Cooling Degree Days 2    
Growing Degree Days 16 (Base 50)    
Moisture  
Dew Point 55 °F    
Average Humidity 70    
Maximum Humidity 100    
Minimum Humidity 40    
Precipitation  
Precipitation 0.00 in - - ()
Sea Level Pressure  
Sea Level Pressure 30.14 in    
Wind  
Wind Speed 3 mph (ENE)    
Max Wind Speed 9 mph    
Max Gust Speed -    
Visibility 10 miles    
Events      
Averages and records for this station are not official NWS values.
T = Trace of Precipitation, MM = Missing Value Source: NWS Daily Summary

Daily Weather History Graph

Daily Weather History Graph

Search for Another Location

Airport:

Trip Planner

Search our weather history database for the weather conditions in past years. The results will help you decide how hot, cold, wet, or windy it might be!

Date:

Astronomy

Sep. 10, 2012 Rise Set
Actual Time 6:28 AM CDT 7:04 PM CDT
Civil Twilight 6:02 AM CDT 7:30 PM CDT
Nautical Twilight 5:31 AM CDT 8:00 PM CDT
Astronomical Twilight 5:00 AM CDT 8:32 PM CDT
Moon 12:56 AM CDT (9/10) 3:27 PM CDT (9/10)
Length of Visible Light 13h 27m
Length of Day
12h 35m
Waning Crescent, 30% of the Moon is Illuminated
Sep 10
Waning Crescent
Sep 15
New
Sep 22
First Quarter
Sep 29
Full
Oct 8
Last Quarter

Hourly Weather History & Observations

Time (CDT) Temp. Dew Point Humidity Pressure Visibility Wind Dir Wind Speed Gust Speed Precip Events Conditions
12:55 AM 59.2 °F 54.5 °F 84% 30.10 in 10.0 mi Calm Calm - N/A   Clear
1:55 AM 58.3 °F 54.7 °F 88% 30.10 in 10.0 mi Calm Calm - N/A   Clear
2:55 AM 57.4 °F 54.5 °F 90% 30.09 in 10.0 mi Calm Calm - N/A   Clear
3:55 AM 57.0 °F 54.9 °F 92% 30.10 in 10.0 mi Calm Calm - N/A   Clear
4:55 AM 57.0 °F 55.2 °F 94% 30.11 in 10.0 mi Calm Calm - N/A   Clear
5:55 AM 55.8 °F 55.8 °F 100% 30.14 in 10.0 mi Calm Calm - N/A   Clear
6:55 AM 55.8 °F 55.6 °F 99% 30.16 in 10.0 mi Calm Calm - N/A   Clear
7:55 AM 60.4 °F 57.7 °F 91% 30.18 in 10.0 mi Calm Calm - N/A   Clear
8:55 AM 65.8 °F 58.1 °F 76% 30.19 in 10.0 mi Variable 4.6 mph - N/A   Clear
9:55 AM 70.0 °F 57.2 °F 64% 30.20 in 10.0 mi East 5.8 mph - N/A   Clear
10:55 AM 73.4 °F 56.3 °F 55% 30.20 in 10.0 mi East 8.1 mph - N/A   Clear
11:55 AM 75.6 °F 54.7 °F 48% 30.19 in 10.0 mi East 9.2 mph - N/A   Clear
12:55 PM 77.0 °F 54.9 °F 46% 30.17 in 10.0 mi NE 9.2 mph - N/A   Clear
1:55 PM 77.9 °F 52.7 °F 41% 30.15 in 10.0 mi East 9.2 mph - N/A   Clear
2:55 PM 78.4 °F 52.9 °F 41% 30.13 in 10.0 mi East 8.1 mph - N/A   Clear
3:55 PM 78.6 °F 52.5 °F 40% 30.12 in 10.0 mi NE 9.2 mph - N/A   Clear
4:55 PM 78.4 °F 52.3 °F 40% 30.12 in 10.0 mi East 4.6 mph - N/A   Clear
5:55 PM 76.8 °F 53.4 °F 44% 30.12 in 10.0 mi NE 6.9 mph - N/A   Clear
6:55 PM 71.2 °F 56.3 °F 59% 30.13 in 10.0 mi NE 3.5 mph - N/A   Clear
7:55 PM 66.9 °F 57.7 °F 72% 30.13 in 10.0 mi NE 3.5 mph - N/A   Clear
8:55 PM 64.0 °F 57.0 °F 78% 30.14 in 10.0 mi NE 4.6 mph - N/A   Clear
9:17 PM 64.4 °F 55.4 °F 73% 30.14 in 10.0 mi NE 4.6 mph - N/A   Light Drizzle
9:26 PM 66.2 °F 55.4 °F 68% 30.14 in 10.0 mi NE 4.6 mph - N/A   Clear
9:55 PM 63.5 °F 56.3 °F 77% 30.14 in 10.0 mi NE 4.6 mph - 0.00 in   Clear
10:55 PM 61.5 °F 56.5 °F 83% 30.15 in 10.0 mi NE 3.5 mph - N/A   Clear
11:55 PM 61.5 °F 55.6 °F 81% 30.16 in 10.0 mi NE 4.6 mph - N/A   Clear